Location: Kailua
(21.4020°N, 157.7390°W)
Time: 09:08:43
(UTC-10:00)

Daily predictions for brighter satellites

Satellite Brightness Start Highest point End
(mag) Time Altitude Azimuth Time Altitude Azimuth Time Altitude Azimuth
H-2A R/B 3.9 18:37:55 10° WNW 18:42:33 57° NNE 19:17:06 10° E
H-2A R/B 3.9 18:37:54 10° WNW 18:42:33 57° NNE 19:17:06 10° E
H-2A R/B 3.9 18:37:54 10° WNW 18:42:34 57° NNE 19:17:06 10° E
H-2A R/B 3.9 18:37:55 10° WNW 18:42:34 57° NNE 19:17:06 10° E
FENGYUN 3A 4.3 19:09:47 10° SE 19:14:39 36° ENE 19:19:31 10° N
Milstar 3 3.8 19:08:19 10° W 19:18:25 55° N 19:25:06 10° ENE
Cosmos 1741 Rocket 4.0 19:13:12 10° N 19:18:32 76° ENE 19:23:49 10° SSE
DASH 4.1 19:12:18 10° WNW 19:24:36 48° N 19:27:58 10° ENE
Cosmos 2297 Rocket 2.2 19:19:13 10° NNW 19:24:51 74° ENE 19:30:29 10° SSE
FALCON 9 R/B 3.5 19:23:20 10° WNW 19:25:24 14° NNW 19:26:55 10° N
Cosmos 1302 Rocket 3.9 19:21:26 10° S 19:26:37 74° ESE 19:31:48 10° NNE
Cosmos 2322 Rocket 2.8 19:21:55 10° SSE 19:26:51 33° ESE 19:31:47 10° NE
ATLAS CENTAUR R/B 3.8 19:27:13 10° NNE 19:30:26 24° ENE 19:36:22 12° ESE
Cosmos 1850 Rocket 4.3 19:27:05 10° NNW 19:32:14 72° WSW 19:37:22 10° S
GPS 2-15 Rocket1 3.4 19:29:46 10° W 19:34:19 55° S 19:38:09 14° ESE
Cosmos 2360 Rocket 4.0 19:38:39 11° E 19:38:39 11° E 19:39:28 10° ENE
Cosmos 1980 Rocket 3.2 19:32:22 10° SSW 19:37:49 51° WNW 19:43:20 10° N
Cosmos 1933 Rocket 4.2 19:35:28 10° NNW 19:39:51 59° W 19:44:12 10° S
HJ-1C 3.5 19:38:00 10° SSE 19:41:22 57° ENE 19:44:46 10° N
GPS 2-04 Rocket1 3.8 19:39:30 10° NW 19:42:40 28° NNE 19:45:02 15° ENE
Meteor 2-3 Rocket 3.8 19:37:41 10° N 19:43:20 60° E 19:49:02 10° SSE
SEDSat Delta rocket 4.4 19:39:04 10° W 19:43:51 45° NNW 19:49:21 10° ENE
CZ-3B DEB 2.4 19:44:03 10° N 19:45:37 13° NE 19:46:13 12° NE
Hubble Space Telescope 1.3 19:42:28 10° W 19:46:29 50° SSW 19:49:17 18° SE
GPS 2-17 Rocket1 2.8 19:45:37 10° W 19:49:58 78° S 19:52:41 22° E
Cosmos 1707 Rocket 3.5 19:45:45 10° S 19:50:11 74° E 19:54:37 10° N
SL-16 R/B 2.1 19:48:59 10° S 19:54:34 64° ESE 20:00:09 10° NNE
IUS-7 SRM-1 3.8 19:52:42 10° WNW 19:55:22 48° NNE 20:01:04 16° E
Cosmos 2227 Rocket 3.6 19:51:00 10° NW 19:56:09 37° WSW 20:01:17 10° S
FengYun 1-2 T 4.3 19:52:42 10° SSE 19:58:21 90° WSW 20:04:01 10° NNW
Helios 1B rocket 2.6 19:55:03 10° NNE 19:58:59 46° E 20:02:55 10° S
ALOS 2.8 19:55:50 10° S 20:00:25 58° W 20:05:01 10° NNW
Resurs 1-3 3.5 20:05:55 20° SSE 20:08:52 69° ENE 20:13:13 10° N
Cosmos 1634 Rocket 3.9 20:04:05 10° S 20:10:20 84° E 20:16:40 10° N
Chunghua 1 4.5 20:08:27 10° SW 20:12:07 60° SSE 20:12:42 51° ESE
Nadezhda 4 Rocket 4.1 20:07:00 10° N 20:13:18 81° W 20:19:36 10° S
Intelsat 5-1 Rocket 1.0 20:10:26 10° WSW 20:13:34 59° SSW 20:13:34 59° SSW
Cosmos 1455 4.2 20:13:24 10° SW 20:16:46 30° W 20:20:07 10° NNW
Cosmos 1869 Rocket 3.5 20:14:29 10° N 20:18:57 88° W 20:21:42 23° S
Cosmos 1992 Rocket 3.9 20:13:48 10° S 20:18:59 69° ESE 20:24:10 10° NNE
Cosmos 1486 Rocket 4.2 20:13:56 10° N 20:19:01 52° ENE 20:20:29 40° ESE
Cosmos 2242 Rocket 3.5 20:18:18 10° S 20:22:46 82° E 20:27:17 10° N
Cosmos 1092 Rocket 3.9 20:16:56 10° N 20:23:17 84° E 20:28:45 15° S
Sakura Rocket 3.0 20:20:30 10° WSW 20:24:16 68° NNW 20:25:42 39° NE
Helios 1A 3.3 20:26:31 48° ENE 20:26:31 48° ENE 20:30:22 10° N
SL-8 R/B 3.8 20:22:30 10° NW 20:27:15 58° NE 20:27:58 52° E
Ariane H10+ 4.2 20:24:42 10° SSW 20:27:57 18° SSE 20:27:57 18° SSE
Cosmos 1655 Rocket 4.4 20:24:18 10° NNE 20:30:11 39° E 20:30:34 39° E
Atlas Centaur 2 3.2 20:26:46 10° W 20:33:28 60° NNW 20:39:30 19° ENE
Cosmos 2227 4.2 20:28:39 10° N 20:34:17 60° ENE 20:35:14 53° ESE
Gblst 52 Del rocket 4.2 20:31:09 10° NNW 20:36:40 56° NE 20:37:23 52° E
USA 229 DEB 3.6 20:32:19 10° S 20:38:55 56° ESE 20:45:34 10° NE
USA 229 3.6 20:32:25 10° S 20:39:00 55° ESE 20:45:38 10° NE
Resurs 01 Rocket 3.0 20:37:03 14° SSW 20:40:27 36° W 20:44:33 10° NNW
Intercosmos 25 Rocket 4.3 20:45:00 37° NW 20:45:00 37° NW 20:47:27 10° N
Spot 1 4.4 20:43:50 67° SSE 20:44:32 84° ENE 20:49:42 10° N
Meteor 1-29 4.5 20:44:27 10° N 20:47:38 35° WNW 20:48:05 34° W
Cosmos 2279 Rocket 4.0 20:45:07 10° S 20:51:20 77° W 20:57:35 10° N
DELTA 2 R/B (1) 4.1 20:46:22 10° NW 20:51:43 44° NNE 20:51:54 44° NE
OTV 4 3.7 20:52:55 10° NW 20:53:24 14° NW 20:53:24 14° NW
Cosmos 1627 Rocket 4.5 20:51:27 10° N 20:57:36 77° W 20:59:18 50° SSW
Meteosat 1 Rocket2 4.3 20:53:22 10° WNW 21:02:22 58° SSW 21:03:06 55° S
Envisat 3.2 21:06:23 65° WNW 21:06:23 65° WNW 21:11:06 10° NNW
Meteor 2-10 Rocket 4.0 21:08:46 61° N 21:08:46 61° N 21:13:30 10° N
Cosmos 2263 Rocket 3.7 21:10:57 10° N 21:13:35 26° NNE 21:13:35 26° NNE
Cosmos 2360 Rocket 2.8 21:20:02 49° W 21:20:49 53° WNW 21:26:20 10° N
CZ-3 Stage 3 3.7 21:18:35 10° WNW 21:32:40 37° SW 21:32:42 37° SW
Lacrosse 4 Rocket 4.1 21:33:14 10° NNW 21:34:15 17° NNW 21:34:15 17° NNW
USA 234 3.9 21:44:56 48° N 21:44:56 48° N 21:49:37 10° NNW
ATLAS 5 CENTAUR R/B 4.3 21:50:08 10° N 21:52:26 22° N 21:52:26 22° N
Milstar 3 3.7 21:55:45 10° WNW 22:00:18 43° NW 22:00:18 43° NW
Atlas Centaur 2 4.1 22:16:46 10° WNW 22:22:10 38° NW 22:22:10 38° NW
